RYR3YU LROP-LIME

Flight info

Callsign RYR3YU
Flight time N/A
Altitude 36000
Route SOKRU DCT SOSIL DCT CE DCT EPOMI DCT ELTAR
Aircraft B738/M-SDE2E3FGHIRWXY/LB1

Departure

Time 2026-05-05 09:14
Airport Bucharest Henri Coandă International Airport (LROP)

Arrival

Time N/A
Airport Il Caravaggio International Airport (LIME)
Time Latitude Longitude Altitude Speed Heading
2026-05-05 08:58 44.56904 26.09317 319 ft 0 kts 173°
2026-05-05 09:08 44.56912 26.09315 318 ft 2 kts 173°
2026-05-05 09:08 44.56927 26.09313 318 ft 2 kts 173°
2026-05-05 09:08 44.56942 26.09311 318 ft 2 kts 173°
2026-05-05 09:08 44.56952 26.09309 318 ft 1 kts 173°
2026-05-05 09:09 44.56966 26.09303 318 ft 2 kts 137°
2026-05-05 09:09 44.56974 26.09285 318 ft 2 kts 104°
2026-05-05 09:09 44.56975 26.09273 318 ft 1 kts 84°
2026-05-05 09:09 44.56974 26.09264 318 ft 0 kts 83°
2026-05-05 09:10 44.56974 26.09265 318 ft 0 kts 83°
2026-05-05 09:11 44.56974 26.09269 318 ft 2 kts 83°
2026-05-05 09:11 44.56982 26.09371 318 ft 18 kts 84°
2026-05-05 09:11 44.57000 26.09588 318 ft 23 kts 83°
2026-05-05 09:12 44.57017 26.09832 318 ft 26 kts 83°
2026-05-05 09:12 44.57037 26.10098 318 ft 28 kts 84°
2026-05-05 09:12 44.57058 26.10388 318 ft 31 kts 84°
2026-05-05 09:12 44.57013 26.10687 318 ft 32 kts 134°
2026-05-05 09:13 44.56794 26.10766 318 ft 34 kts 177°
2026-05-05 09:13 44.56678 26.10525 318 ft 47 kts 263°
2026-05-05 09:13 44.56622 26.09728 318 ft 115 kts 264°
2026-05-05 09:13 44.56516 26.08343 338 ft 168 kts 263°
2026-05-05 09:14 44.56400 26.06729 984 ft 169 kts 264°
2026-05-05 09:14 44.56296 26.05084 1613 ft 175 kts 264°
2026-05-05 09:14 44.56173 26.03335 2121 ft 189 kts 264°
2026-05-05 09:14 44.56033 26.01432 2614 ft 205 kts 264°
2026-05-05 09:15 44.55878 25.99338 3106 ft 225 kts 265°
2026-05-05 09:15 44.55715 25.97115 3666 ft 241 kts 265°
2026-05-05 09:15 44.55537 25.94703 4258 ft 257 kts 265°
2026-05-05 09:15 44.55348 25.92140 4870 ft 273 kts 266°
2026-05-05 09:16 44.55151 25.89449 5648 ft 281 kts 266°
2026-05-05 09:16 44.55102 25.86731 6512 ft 282 kts 281°
2026-05-05 09:16 44.55634 25.84125 7446 ft 279 kts 295°
2026-05-05 09:16 44.56372 25.81600 8300 ft 283 kts 295°
2026-05-05 09:17 44.57049 25.79032 9116 ft 287 kts 292°
2026-05-05 09:17 44.57647 25.76347 9949 ft 291 kts 290°
2026-05-05 09:17 44.58207 25.73568 10585 ft 302 kts 289°
2026-05-05 09:17 44.58770 25.70678 11053 ft 318 kts 289°
2026-05-05 09:18 44.59367 25.67596 11524 ft 333 kts 289°
2026-05-05 09:18 44.59982 25.64432 11971 ft 348 kts 289°
2026-05-05 09:18 44.60634 25.61088 12386 ft 364 kts 289°
2026-05-05 09:18 44.61325 25.57536 12819 ft 380 kts 289°
2026-05-05 09:19 44.62030 25.53912 13214 ft 395 kts 289°
2026-05-05 09:19 44.62770 25.50096 13530 ft 412 kts 289°
2026-05-05 09:19 44.63521 25.46209 14176 ft 419 kts 289°
2026-05-05 09:19 44.64286 25.42226 14973 ft 423 kts 289°
2026-05-05 09:20 44.65052 25.38226 15758 ft 426 kts 289°
2026-05-05 09:20 44.65816 25.34235 16432 ft 431 kts 288°
2026-05-05 09:20 44.66598 25.30142 17172 ft 434 kts 288°
2026-05-05 09:20 44.67379 25.26047 17899 ft 437 kts 288°
2026-05-05 09:21 44.68169 25.21897 18604 ft 440 kts 288°
2026-05-05 09:21 44.68961 25.17731 19237 ft 444 kts 288°
2026-05-05 09:21 44.69760 25.13523 19910 ft 448 kts 288°
2026-05-05 09:21 44.70569 25.09257 20535 ft 452 kts 288°
2026-05-05 09:22 44.71376 25.04991 21151 ft 455 kts 288°
2026-05-05 09:22 44.72184 25.00714 21797 ft 458 kts 288°
2026-05-05 09:22 44.73003 24.96363 22322 ft 463 kts 288°
2026-05-05 09:22 44.73824 24.91993 22906 ft 466 kts 288°
2026-05-05 09:23 44.74652 24.87571 23453 ft 470 kts 287°
2026-05-05 09:23 44.75486 24.83107 24020 ft 473 kts 288°
2026-05-05 09:23 44.76311 24.78681 24571 ft 476 kts 288°
2026-05-05 09:23 44.77157 24.74128 25126 ft 479 kts 288°
2026-05-05 09:24 44.77999 24.69589 25652 ft 481 kts 288°
2026-05-05 09:24 44.78836 24.65066 26217 ft 482 kts 288°
2026-05-05 09:24 44.79665 24.60563 27059 ft 476 kts 288°
2026-05-05 09:24 44.80488 24.56076 27804 ft 472 kts 288°
2026-05-05 09:25 44.81309 24.51591 28443 ft 470 kts 288°
2026-05-05 09:25 44.82114 24.47189 29096 ft 467 kts 288°
2026-05-05 09:25 44.82924 24.42750 29721 ft 465 kts 288°
2026-05-05 09:25 44.83731 24.38324 30298 ft 463 kts 289°
2026-05-05 09:26 44.84517 24.34002 30863 ft 461 kts 288°
2026-05-05 09:26 44.85314 24.29618 31348 ft 460 kts 288°
2026-05-05 09:26 44.86091 24.25332 31880 ft 458 kts 288°
2026-05-05 09:26 44.86875 24.20997 32361 ft 457 kts 288°
2026-05-05 09:27 44.87657 24.16657 32880 ft 455 kts 288°
2026-05-05 09:27 44.88441 24.12299 33367 ft 454 kts 288°
2026-05-05 09:27 44.89211 24.08006 33879 ft 451 kts 288°
2026-05-05 09:27 44.89986 24.03667 34340 ft 450 kts 288°
2026-05-05 09:28 44.90754 23.99369 34711 ft 450 kts 288°
2026-05-05 09:28 44.91516 23.95095 35041 ft 449 kts 288°
2026-05-05 09:28 44.92268 23.90868 35353 ft 449 kts 288°
2026-05-05 09:28 44.93027 23.86591 35653 ft 448 kts 288°
2026-05-05 09:29 44.93783 23.82318 35980 ft 447 kts 288°
2026-05-05 09:29 44.95298 23.73743 36059 ft 455 kts 288°
2026-05-05 09:30 44.96823 23.65059 36051 ft 456 kts 287°
2026-05-05 09:30 44.98337 23.56371 36049 ft 455 kts 287°
2026-05-05 09:31 44.99840 23.47712 36045 ft 454 kts 287°
2026-05-05 09:31 45.01334 23.39071 36048 ft 453 kts 287°
2026-05-05 09:32 45.02830 23.30374 36052 ft 455 kts 287°
2026-05-05 09:32 45.04319 23.21675 36053 ft 454 kts 286°
2026-05-05 09:33 45.05783 23.13075 36062 ft 454 kts 286°
2026-05-05 09:33 45.07260 23.04359 36068 ft 454 kts 286°
2026-05-05 09:34 45.08721 22.95699 36073 ft 455 kts 286°
2026-05-05 09:34 45.10179 22.87014 36081 ft 454 kts 286°
2026-05-05 09:35 45.11618 22.78388 36085 ft 453 kts 286°
2026-05-05 09:35 45.13783 22.65337 36090 ft 453 kts 286°
2026-05-05 09:36 45.15223 22.56607 36091 ft 454 kts 286°
2026-05-05 09:36 45.16642 22.47957 36092 ft 453 kts 286°
2026-05-05 09:37 45.18064 22.39238 36086 ft 453 kts 286°
2026-05-05 09:37 45.19470 22.30580 36081 ft 453 kts 285°
2026-05-05 09:38 45.20879 22.21850 36073 ft 452 kts 285°
2026-05-05 09:38 45.22272 22.13186 36071 ft 453 kts 285°
2026-05-05 09:39 45.23667 22.04452 36072 ft 454 kts 285°
2026-05-05 09:39 45.25051 21.95752 36071 ft 454 kts 285°
2026-05-05 09:40 45.26434 21.87002 36057 ft 453 kts 285°
2026-05-05 09:40 45.27803 21.78301 36044 ft 453 kts 285°
2026-05-05 09:41 45.29179 21.69510 36032 ft 453 kts 285°
2026-05-05 09:41 45.30537 21.60778 36026 ft 452 kts 285°
2026-05-05 09:42 45.31883 21.52081 36021 ft 452 kts 284°
2026-05-05 09:42 45.33226 21.43358 36017 ft 453 kts 284°
2026-05-05 09:43 45.34569 21.34600 36016 ft 454 kts 284°
2026-05-05 09:43 45.35734 21.25738 36011 ft 456 kts 279°
2026-05-05 09:44 45.36380 21.16795 36005 ft 456 kts 277°
2026-05-05 09:44 45.36923 21.07796 35999 ft 455 kts 277°
2026-05-05 09:45 45.37490 20.98845 35998 ft 455 kts 277°
2026-05-05 09:45 45.38086 20.89876 35999 ft 454 kts 277°
2026-05-05 09:46 45.38691 20.80970 35989 ft 453 kts 277°
2026-05-05 09:46 45.39295 20.72081 35995 ft 454 kts 277°
2026-05-05 09:47 45.39899 20.63137 35995 ft 454 kts 277°
2026-05-05 09:47 45.40491 20.54278 35992 ft 453 kts 277°
2026-05-05 09:48 45.41080 20.45361 35995 ft 451 kts 277°
2026-05-05 09:48 45.41663 20.36433 35994 ft 451 kts 277°
2026-05-05 09:49 45.42235 20.27557 35996 ft 451 kts 276°
2026-05-05 09:49 45.42799 20.18700 35995 ft 450 kts 276°
2026-05-05 09:50 45.43356 20.09840 35996 ft 450 kts 276°
2026-05-05 09:50 45.43906 20.00990 35996 ft 449 kts 276°
2026-05-05 09:51 45.44449 19.92133 35994 ft 449 kts 276°
2026-05-05 09:51 45.44985 19.83277 35994 ft 450 kts 276°
2026-05-05 09:52 45.45519 19.74349 35995 ft 450 kts 276°
2026-05-05 09:52 45.46040 19.65525 35992 ft 450 kts 276°
2026-05-05 09:53 45.46556 19.56642 35993 ft 449 kts 276°
2026-05-05 09:53 45.47065 19.47782 35993 ft 448 kts 276°
2026-05-05 09:54 45.47568 19.38902 35994 ft 447 kts 276°
2026-05-05 09:54 45.48057 19.30139 35989 ft 448 kts 275°
2026-05-05 09:55 45.48548 19.21226 35994 ft 449 kts 275°
2026-05-05 09:55 45.49026 19.12415 35998 ft 448 kts 275°
2026-05-05 09:56 45.49501 19.03545 35997 ft 448 kts 275°
2026-05-05 09:56 45.49970 18.94639 36002 ft 448 kts 275°
2026-05-05 09:57 45.50430 18.85787 36002 ft 448 kts 275°
2026-05-05 09:57 45.50883 18.76929 35995 ft 447 kts 275°
2026-05-05 09:58 45.51327 18.68119 35992 ft 446 kts 275°
2026-05-05 09:58 45.51764 18.59302 35987 ft 446 kts 275°
2026-05-05 09:59 45.52195 18.50475 35985 ft 446 kts 274°
2026-05-05 09:59 45.52616 18.41711 35978 ft 446 kts 274°
2026-05-05 10:00 45.53034 18.32873 35974 ft 446 kts 274°
2026-05-05 10:00 45.53444 18.24067 35971 ft 445 kts 274°
2026-05-05 10:01 45.53846 18.15268 35963 ft 447 kts 274°
2026-05-05 10:01 45.54241 18.06480 35965 ft 445 kts 274°
2026-05-05 10:02 45.54631 17.97658 35970 ft 445 kts 274°
2026-05-05 10:02 45.55012 17.88857 35986 ft 444 kts 273°
2026-05-05 10:03 45.55388 17.80034 35998 ft 445 kts 273°
2026-05-05 10:03 45.55757 17.71213 35999 ft 444 kts 273°
2026-05-05 10:04 45.56116 17.62477 36002 ft 446 kts 273°
2026-05-05 10:04 45.56474 17.53584 35997 ft 446 kts 273°
2026-05-05 10:05 45.56823 17.44775 35997 ft 445 kts 273°
2026-05-05 10:05 45.57165 17.35948 35990 ft 446 kts 273°
2026-05-05 10:06 45.57501 17.27103 35983 ft 446 kts 272°
2026-05-05 10:06 45.57832 17.18237 35975 ft 446 kts 272°
2026-05-05 10:07 45.58153 17.09404 35973 ft 446 kts 272°
2026-05-05 10:07 45.58468 17.00541 35972 ft 447 kts 272°
2026-05-05 10:08 45.58778 16.91689 35967 ft 446 kts 272°
2026-05-05 10:08 45.59078 16.82901 35971 ft 447 kts 272°
2026-05-05 10:09 45.59372 16.74058 35975 ft 446 kts 272°
2026-05-05 10:09 45.59660 16.65205 35973 ft 446 kts 272°
2026-05-05 10:10 45.59943 16.56327 35975 ft 446 kts 272°
2026-05-05 10:10 45.60216 16.47519 35972 ft 447 kts 272°
2026-05-05 10:11 45.60484 16.38617 35977 ft 446 kts 272°
2026-05-05 10:11 45.60743 16.29826 35976 ft 446 kts 271°
2026-05-05 10:12 45.60996 16.21019 35983 ft 446 kts 271°
2026-05-05 10:12 45.61244 16.12143 35984 ft 445 kts 271°
2026-05-05 10:13 45.61482 16.03375 35982 ft 446 kts 271°
2026-05-05 10:13 45.61716 15.94478 35983 ft 445 kts 271°
2026-05-05 10:14 45.61942 15.85665 35979 ft 446 kts 271°
2026-05-05 10:14 45.62161 15.76801 35980 ft 448 kts 271°
2026-05-05 10:15 45.62374 15.67946 35986 ft 448 kts 271°
2026-05-05 10:15 45.62582 15.59013 35989 ft 449 kts 271°
2026-05-05 10:16 45.62781 15.50143 35995 ft 449 kts 271°
2026-05-05 10:16 45.62977 15.41195 35998 ft 450 kts 271°
2026-05-05 10:17 45.63165 15.32331 36000 ft 450 kts 271°
2026-05-05 10:17 45.63348 15.23391 36001 ft 449 kts 271°
2026-05-05 10:18 45.63523 15.14483 36003 ft 450 kts 271°
2026-05-05 10:18 45.63689 15.05546 36005 ft 451 kts 271°
2026-05-05 10:19 45.63850 14.96555 36005 ft 451 kts 270°
2026-05-05 10:19 45.64003 14.87586 36013 ft 451 kts 270°
2026-05-05 10:20 45.64123 14.80160 36013 ft 451 kts 270°